Regional Weather Roundup
Issued by NWS

Home | Current Version | Previous Version | Graphics & Text | Print | Product List | Glossary On
Versions: 1 2 3 4 5 6 7 8 9 10 11 12 13 14 15 16 17 18 19 20 21 22 23 24 25 26 27 28 29 30 31 32 33 34 35 36 37 38 39 40 41 42 43 44 45 46 47 48 49 50
821
ASUS43 KMKX 191820
RWRWI

WISCONSIN REGIONAL WEATHER ROUNDUP
NATIONAL WEATHER SERVICE MILWAUKEE/SULLIVAN WI
1200 PM CST FRI JAN 19 2018

NOTE: "FAIR" INDICATES FEW OR NO CLOUDS BELOW 12,000 FEET WITH NO
SIGNIFICANT WEATHER AND/OR OBSTRUCTIONS TO VISIBILITY.

WIZ001-002-006>008-014>016-023>028-191900-
NORTHWEST WISCONSIN

CITY           SKY/WX    TMP DP  RH WIND       PRES   REMARKS
SUPERIOR ARPT  FAIR      37  28  72 W7        29.47F WCI  31
6HR MIN TEMP:  27; 6HR MAX TEMP:  37;

ASHLAND        NOT AVBL
HAYWARD        FAIR      35  24  64 S6        29.51F WCI  30
6HR MIN TEMP:  24; 6HR MAX TEMP:  35;

SIREN          FAIR      39  26  58 SE5       29.48F
6HR MIN TEMP:  28; 6HR MAX TEMP:  39;

CUMBERLAND     FAIR      32  23  69 S10       29.51F WCI  24
RICE LAKE      FAIR      33  26  74 SE8       29.54F WCI  26
6HR MIN TEMP:  23; 6HR MAX TEMP:  33;

CHETEK         FAIR      34  25  69 S9        29.55F WCI  26
LADYSMITH      FAIR      32  25  74 S8        29.58F WCI  25
6HR MIN TEMP:  24; 6HR MAX TEMP:  32;

EAU CLAIRE     FAIR      35  26  69 S6        29.57F WCI  30
6HR MIN TEMP:  24; 6HR MAX TEMP:  35;

MENOMONIE      FAIR      35  26  68 SE8       29.56F WCI  29
6HR MIN TEMP:  26; 6HR MAX TEMP:  35;

NEW RICHMOND   FAIR      36  25  64 SE7       29.52F WCI  30
6HR MIN TEMP:  27; 6HR MAX TEMP:  36;

OSCEOLA        FAIR      37  27  67 S12       29.53F WCI  29
6HR MIN TEMP:  28; 6HR MAX TEMP:  37;

$$

WIZ003>005-009-010-017-018-191900-
NORTH CENTRAL WISCONSIN

CITY           SKY/WX    TMP DP  RH WIND       PRES   REMARKS
MANITOWISH WTR FAIR      32  24  72 S9        29.50F WCI  25
6HR MIN TEMP:  23; 6HR MAX TEMP:  32;

ARBOR VITAE    FAIR      32  26  78 S7        29.52F WCI  26
6HR MIN TEMP:  22; 6HR MAX TEMP:  32;

WOODRUFF       FAIR      32  26  78 S7        29.52F WCI  26
6HR MIN TEMP:  22; 6HR MAX TEMP:  32;

RHINELANDER    FAIR      32  24  72 SW8       29.55F WCI  25
6HR MIN TEMP:  23; 6HR MAX TEMP:  32;

EAGLE RIVER    FAIR      32  23  70 SW6       29.51F WCI  26
6HR MIN TEMP:  22; 6HR MAX TEMP:  32;

LAND O LAKES   FAIR      34  25  70 SW7       29.52F WCI  28
6HR MIN TEMP:  22; 6HR MAX TEMP:  34;

PHILLIPS       FAIR      33  24  70 S8        29.52F WCI  26
6HR MIN TEMP:  23; 6HR MAX TEMP:  32;

TOMAHAWK       FAIR      32  24  71 CALM      29.56F
6HR MIN TEMP:  18; 6HR MAX TEMP:  32;

MEDFORD        FAIR      30  23  75 S9        29.57F WCI  22
6HR MIN TEMP:  20; 6HR MAX TEMP:  30;

MERRILL        FAIR      32  24  71 SW6       29.59F WCI  26
6HR MIN TEMP:  14; 6HR MAX TEMP:  31;

$$

WIZ029-030-035-036-043>047-191900-
CENTRAL WISCONSIN

CITY           SKY/WX    TMP DP  RH WIND       PRES   REMARKS
WAUSAU         FAIR      33  24  69 S8        29.58F WCI  26
6HR MIN TEMP:  21; 6HR MAX TEMP:  33;

MOSINEE        CLOUDY    32  25  74 S8        29.62F WCI  25
MARSHFIELD     FAIR      33  25  72 S9        29.59F WCI  25
6HR MIN TEMP:  22; 6HR MAX TEMP:  33;

STEVENS POINT  FAIR      32  23  69 S5        29.63F WCI  28
6HR MIN TEMP:  18; 6HR MAX TEMP:  32;

WAUPACA        FAIR      38  25  59 S8        29.65F WCI  32
6HR MIN TEMP:  23; 6HR MAX TEMP:  38;

WAUTOMA        FAIR      36  23  59 SW10      29.66F WCI  28
6HR MIN TEMP:  21; 6HR MAX TEMP:  36;

WISC RAPIDS    FAIR      33  22  63 SW8       29.64F WCI  26
6HR MIN TEMP:  24; 6HR MAX TEMP:  33;

CAMP DOUGLAS   CLOUDY    37  25  60 SW13      29.65F WCI  29
$$

WIZ011>013-019>022-031-037>040-048>050-191900-
NORTHEAST WISCONSIN

CITY           SKY/WX    TMP DP  RH WIND       PRES   REMARKS
ANTIGO         FAIR      31  24  73 SW14      29.59F WCI  21
6HR MIN TEMP:  19; 6HR MAX TEMP:  31;

SHAWANO        FAIR      35  24  64 SW7       29.63F WCI  29
6HR MIN TEMP:  24; 6HR MAX TEMP:  36;

OCONTO         FAIR      33  24  68 SW10G18   29.64S WCI  25
6HR MIN TEMP:  20; 6HR MAX TEMP:  33;

STURGEON BAY   FAIR      34  24  67 SW14      29.65F WCI  25
6HR MIN TEMP:  22; 6HR MAX TEMP:  34;

GREEN BAY      FAIR      33  24  69 S13G22    29.65F WCI  24
6HR MIN TEMP:  22; 6HR MAX TEMP:  33;

MANITOWOC      FAIR      36  24  62 SW12      29.68F WCI  28
6HR MIN TEMP:  23; 6HR MAX TEMP:  36;

APPLETON       PTSUNNY   30  21  69 SW15      29.65F WCI  19
CLINTONVILLE   FAIR      34  23  64 SW7       29.64F WCI  28
OSHKOSH        FAIR      34  25  69 SW15      29.67F WCI  24
6HR MIN TEMP:  23; 6HR MAX TEMP:  34;

$$

WIZ032>034-041-042-053>061-191900-
SOUTHWEST WISCONSIN

CITY           SKY/WX    TMP DP  RH WIND       PRES   REMARKS
LA CROSSE      FAIR      35  26  69 S14G24    29.64F WCI  26
6HR MIN TEMP:  27; 6HR MAX TEMP:  35;

SPARTA         FAIR      37  26  67 S10G17    29.65F WCI  29
6HR MIN TEMP:  27; 6HR MAX TEMP:  37;

VIROQUA        FAIR      35  27  74 S12       29.66F WCI  26
6HR MIN TEMP:  25; 6HR MAX TEMP:  34;

BOSCOBEL       FAIR      39  25  57 SW9       29.73F WCI  33
6HR MIN TEMP:  20; 6HR MAX TEMP:  39;

PRAIRIE DU CHI FAIR      37  24  57 S5        29.73F WCI  34
6HR MIN TEMP:  27; 6HR MAX TEMP:  37;

PLATTEVILLE    FAIR      36  27  70 S15       29.74F WCI  27
6HR MIN TEMP:  23; 6HR MAX TEMP:  36;

$$

WIZ056-057-062-063-064-067-068-191900-
SOUTH CENTRAL WISCONSIN

CITY           SKY/WX    TMP DP  RH WIND       PRES   REMARKS
REEDSBURG      FAIR      35  25  67 SW8       29.69F WCI  28
6HR MIN TEMP:  25; 6HR MAX TEMP:  35;

BARABOO/DELLS  FAIR      36  24  63 SW9       29.69F WCI  29
6HR MIN TEMP:  26; 6HR MAX TEMP:  36;

LONE ROCK      FAIR      37  25  61 SW12      29.73F WCI  29
6HR MIN TEMP:  17; 6HR MAX TEMP:  37;

MINERAL POINT  FAIR      36  30  80 S14       29.73F WCI  27
MADISON        CLOUDY    36  24  62 SW9G21    29.73F WCI  29
6HR MIN TEMP:  25; 6HR MAX TEMP:  36;

MIDDLETON      FAIR      39  25  58 SW14G22   29.72F WCI  30
6HR MIN TEMP:  28; 6HR MAX TEMP:  39;

WATERTOWN      FAIR      35  26  69 S10       29.72F WCI  27
6HR MIN TEMP:  22; 6HR MAX TEMP:  35;

MONROE         FAIR      34  25  69 S21       29.73F WCI  22
JANESVILLE     SUNNY     36  25  64 SW14      29.77F WCI  27
$$

WIZ051-052-058>065-066-070>072-191900-
SOUTHEAST WISCONSIN

CITY           SKY/WX    TMP DP  RH WIND       PRES   REMARKS
MILWAUKEE      PTSUNNY   37  25  61 SW15      29.74F WCI  28
6HR MIN TEMP:  28; 6HR MAX TEMP:  37;

WAUKESHA       SUNNY     36  21  55 SW14G22   29.75F WCI  27
MILWAUKEE/TIMM SUNNY     36  21  55 SW16G23   29.74F WCI  26
RACINE         FAIR      37  24  59 SW17G25   29.77F WCI  27
6HR MIN TEMP:  28; 6HR MAX TEMP:  37;

BURLINGTON     FAIR      35  23  62 SW15G21   29.76F WCI  26
6HR MIN TEMP:  24; 6HR MAX TEMP:  36;

KENOSHA        FAIR      37  23  56 SW21G28   29.77F WCI  26
6HR MIN TEMP:  28; 6HR MAX TEMP:  37;

FOND DU LAC    FAIR      35  23  61 SW18G25   29.69F WCI  24
6HR MIN TEMP:  25; 6HR MAX TEMP:  35;

SHEBOYGAN      FAIR      35  26  69 SW10      29.69F WCI  27
6HR MIN TEMP:  20; 6HR MAX TEMP:  35;

WEST BEND      FAIR      36  25  64 SW14      29.70F WCI  27
JUNEAU         FAIR      33  24  70 S15       29.72F WCI  23
6HR MIN TEMP:  22; 6HR MAX TEMP:  33;

$$

LSZ147-162-191900-
LAKE SUPERIOR

STATION/POSITION TIME  TEMP    WIND        PRES    WAVE
                       AIR SEA DIR/SP/G            HT/PER
                 (UTC) (F)     (DEG/KT/KT) (MB)    (FT/S)
DEVILS ISLAND    1800   35     240/ 14/ 17  997.0F
SAXON HARBOR     1740   43     180/  8/ 13  997.3F
$$

LMZ867-665-643>646-191900-
LAKE MICHIGAN

STATION/POSITION TIME  TEMP    WIND        PRES    WAVE
                       AIR SEA DIR/SP/G            HT/PER
                 (UTC) (F)     (DEG/KT/KT) (MB)    (FT/S)
NORTHPORT PIER   1740   34     170/ 12/ 25 1003.7F
KEWAUNEE LAKESHO 1754   32     180/ 11/ 13 1004.0F
SHEBOYGAN LAKESH 1800   35     200/ 12/ 13 1006.2F
PORT WASHI



USA.gov is the U.S. government's official web portal to all federal, state and local government web resources and services.